Location: Vancouver
(49.2500°N, 123.1330°W)
Time: 23:38:18
(UTC-07:00)

YAOGAN 6 - Pass Details

Date: 28 February 2018
Orbit: 466 x 508 km, 97.1° (Epoch: 20 June)

Event Time Altitude Azimuth Distance (km) Brightness Sun altitude
Exits shadow 19:35:08 42° 101° (E) 701 2.8 -17.2°
Maximum altitude 19:35:40 46° 72° (ENE) 659 2.8 -17.3°
Drops below altitude 10° 19:39:07 10° 359° (N) 1,665 5.4 -17.8°
Sets 19:41:13 0° 353° (N) 2,543 6.4 -18.2°
